THOR ABLESTAR DEB, 753

Orbit data source: Space-Track

THOR ABLESTAR DEB, 753 is space debris in LEO originally from a launch on Thu, 05 Dec 1963 UTC launched from the Air Force Western Test Range (AFWTR). Debris objects in space refer to the collection of defunct objects orbiting the Earth. Examples of debris include non-operational satellites, rocket bodies, and fragments generated from explosions, collisions, or faulty payload assembly.

Loading next visibility...
Identifier
753, 1963-049F
Orbit
LEO
Country
Flag of USUS
Related business
Manufacturer
Unknown
Mission
Spacecraft
Bus & Motor
Unknown
Mass
Unknown
Launch date (UTC)
1963-12-05 (63 years ago)
Launch vehicle
Unknown
Launch site
Air Force Western Test Range (AFWTR)
Object type
Payload
Rocket body
Debris
Shape & HBR
Unknown shape, 0.1 m
Radar Cross Section
Medium (>0.1 m² and <1 m²)

Expand to show TLE details & history
Last TLE update: 6 hours ago

TLE from 6 hours ago
0 THOR ABLESTAR DEB
1 00753U 63049F   26236.55511184  .00000193  00000-0  26623-3 0  9991
2 00753  89.9115  72.1389 0027460   7.7976  17.4621 13.54961577 89810
Epoch: 2026-08-24T13:19Z
TLE epoch observation values (Epoch: 2026-08-24T13:19:21.662Z)
Latitude
25.38223°
Longitude
-100.49472°
Altitude
1,037.729 km
Speed
7.345 km/s
True Right ascension
04h 48m 43s
True Declination
25° 15' 16"
Sunlit
Object was in daylight at epoch
Visualization orbit readout
Latitude
Unknown
Longitude
Unknown
Altitude
Unknown
Speed
Unknown
Apparent Right ascension
Unknown
Apparent Declination
Unknown
Sunlit
N/A
Visualization observer readout
Local Sidereal Time
10:26:40
Azimuth
Unknown
Elevation
Unknown
Doppler factor
Unknown
Orbital elements
Apogee altitude
1,071.503 km
Perigee altitude
1,030.701 km
Semi-major axis
7,429.239 km
Eccentricity
0.00275
Inclination
89.9115°
RAAN
72.1389°
Arg. of periapsis
7.7976°
True anomaly
17.55683°
Mean anomaly
17.4621°
Eccentric anomaly
17.50944°
Mean motion
3.38943 °/min
Orbital period
106.21 mins
BSTAR
0.00026623
Loading maneuver chart data...
Computing Atmospheric mass density...
Loading historical data...
Loading historical data...
Loading historical data...
Loading historical data...
Loading historical data...
Loading historical data...
Loading historical data...

Documentation

Showing up to 5 results
|